Location: Rumah Long Bangan
(2.8362°N, 113.7519°E)
Time: 05:05:38
(UTC+00:00)

ARIANE 44L R/B - Pass Details

Date: 24 October 2021
Orbit: 322 x 31588 km, 6.9° (Epoch: 28 November)

Event Time Altitude Azimuth Distance (km) Brightness Sun altitude
Exits shadow 21:43:56 - 257° (WSW) 5,730 6.9 -6.7°
Reaches altitude 10° 21:49:22 10° 246° (WSW) 3,167 5.7 -5.4°
Maximum altitude 21:54:09 23° 193° (SSW) 1,204 4.1 -4.3°
Drops below altitude 10° 21:56:22 10° 135° (SE) 1,395 5.4 -3.7°
Sets 21:58:00 0° 115° (ESE) 2,063 7.3 -3.3°
